sat.trackr.live / text

‹ back to catalog

STARLINK-32723

NORAD 62449 · 2024-251T

PAYLOAD ACTIVE UNKNOWN

§ Identity

Operator
Country
US
Launch date
2024-12-29
Launch site
AFWTR
Launch vehicle
Mass (kg)
RCS (m²)

Purposes: comms

External: N2YO · Heavens-Above · Gunter

§ Orbital elements

Epoch: 2026-09-21T20:07:52.930848Z

Period
93.85 min
Inclination
53.1579°
Eccentricity
0.0001407
Mean motion
15.34394198 rev/d
Perigee alt
461.8 km
Apogee alt
463.7 km
Semi-major
6,840.9 km
B*
2.4182e-4
RAAN
141.0970°
Arg perigee
86.6182°
Mean anomaly
273.4981°
Rev number
9,786

§ Raw data

STARLINK-327231 62449U 24251T   26264.83880707  .00007801  00000+0  24182-3 0  99952 62449  53.1579 141.0970 0001407  86.6182 273.4981 15.34394198 97863

JSON: /api/v1/satellites/62449 · /tle

For live sub-satellite position, see the globe view (requires WebGL).

§ Visibility from observer

Set your observer location to see the next 7 days of passes ≥ 10°. The values pass through the URL so the page stays shareable.

No JS? Fill the form by hand. The geolocation button needs JavaScript.